Time,TemperatureF,DewpointF,PressureIn,WindDirection,WindDirectionDegrees,WindSpeedMPH,WindSpeedGustMPH,Humidity,HourlyPrecipIn,Conditions,Clouds,dailyrainin,SoftwareType,DateUTC
2013-07-02 00:33:00,68.0,60.0,29.86,North,0,0.0,-999.0,75,0.00,,,-99.99,,2013-07-02 07:33:00,
2013-07-02 00:44:00,68.0,60.0,29.86,North,0,0.0,-999.0,75,0.00,,,-99.99,,2013-07-02 07:44:00,
2013-07-02 00:52:00,68.0,60.0,29.86,North,0,0.0,-999.0,75,0.00,,,-99.99,,2013-07-02 07:52:00,
2013-07-02 01:33:00,67.0,61.0,29.86,North,0,0.0,-999.0,80,0.00,,,-99.99,,2013-07-02 08:33:00,
2013-07-02 01:44:00,67.0,61.0,29.86,North,0,0.0,-999.0,80,0.00,,,-99.99,,2013-07-02 08:44:00,
2013-07-02 01:53:00,67.0,61.0,29.86,North,0,0.0,-999.0,80,0.00,,,-99.99,,2013-07-02 08:53:00,
2013-07-02 02:33:00,66.0,60.0,29.86,North,0,0.0,-999.0,82,0.00,,,-99.99,,2013-07-02 09:33:00,
2013-07-02 02:43:00,66.0,60.0,29.86,North,0,0.0,-999.0,82,0.00,,,-99.99,,2013-07-02 09:43:00,
2013-07-02 02:52:00,66.0,60.0,29.86,North,0,0.0,-999.0,82,0.00,,,-99.99,,2013-07-02 09:52:00,
2013-07-02 03:33:00,65.0,61.0,29.87,East,90,3.0,-999.0,86,0.00,,,-99.99,,2013-07-02 10:33:00,
2013-07-02 03:43:00,65.0,61.0,29.87,East,90,3.0,-999.0,86,0.00,,,-99.99,,2013-07-02 10:43:00,
2013-07-02 03:52:00,65.0,61.0,29.87,East,90,3.0,-999.0,86,0.00,,,-99.99,,2013-07-02 10:52:00,
2013-07-02 04:33:00,67.0,60.0,29.87,North,0,0.0,-999.0,79,0.00,,,-99.99,,2013-07-02 11:33:00,
2013-07-02 04:42:00,67.0,60.0,29.87,North,0,0.0,-999.0,79,0.00,,,-99.99,,2013-07-02 11:42:00,
2013-07-02 04:52:00,67.0,60.0,29.87,North,0,0.0,-999.0,79,0.00,,,-99.99,,2013-07-02 11:52:00,
2013-07-02 05:33:00,66.0,59.0,29.87,North,0,0.0,-999.0,79,0.00,,,-99.99,,2013-07-02 12:33:00,
2013-07-02 05:43:00,66.0,59.0,29.87,North,0,0.0,-999.0,79,0.00,,,-99.99,,2013-07-02 12:43:00,
2013-07-02 05:52:00,66.0,59.0,29.87,North,0,0.0,-999.0,79,0.00,,,-99.99,,2013-07-02 12:52:00,
2013-07-02 06:43:00,65.0,61.0,29.89,North,0,0.0,-999.0,87,0.00,,,-99.99,,2013-07-02 13:43:00,
2013-07-02 06:52:00,65.0,61.0,29.89,North,0,0.0,-999.0,87,0.00,,,-99.99,,2013-07-02 13:52:00,
2013-07-02 07:33:00,65.0,62.0,29.91,North,0,0.0,-999.0,90,0.00,,,-99.99,,2013-07-02 14:33:00,
2013-07-02 07:43:00,65.0,62.0,29.91,North,0,0.0,-999.0,90,0.00,,,-99.99,,2013-07-02 14:43:00,
2013-07-02 07:53:00,65.0,62.0,29.91,North,0,0.0,-999.0,90,0.00,,,-99.99,,2013-07-02 14:53:00,
2013-07-02 08:33:00,66.0,63.0,29.91,North,0,0.0,-999.0,90,0.00,,,-99.99,,2013-07-02 15:33:00,
2013-07-02 08:44:00,66.0,63.0,29.91,North,0,0.0,-999.0,90,0.00,,,-99.99,,2013-07-02 15:44:00,
2013-07-02 08:53:00,66.0,63.0,29.91,North,0,0.0,-999.0,90,0.00,,,-99.99,,2013-07-02 15:53:00,
2013-07-02 09:33:00,67.0,64.0,29.92,West,280,2.0,-999.0,89,0.00,,,-99.99,,2013-07-02 16:33:00,
2013-07-02 09:43:00,67.0,64.0,29.92,West,280,2.0,-999.0,89,0.00,,,-99.99,,2013-07-02 16:43:00,
2013-07-02 09:52:00,67.0,64.0,29.92,West,280,2.0,-999.0,89,0.00,,,-99.99,,2013-07-02 16:52:00,
2013-07-02 10:33:00,68.0,64.0,29.95,North,0,0.0,-999.0,87,0.00,,,-99.99,,2013-07-02 17:33:00,
2013-07-02 10:43:00,68.0,64.0,29.95,North,0,0.0,-999.0,87,0.00,,,-99.99,,2013-07-02 17:43:00,
2013-07-02 10:53:00,68.0,64.0,29.95,North,0,0.0,-999.0,87,0.00,,,-99.99,,2013-07-02 17:53:00,
2013-07-02 11:34:00,70.0,64.0,29.96,SW,230,4.0,-999.0,80,0.00,,,-99.99,,2013-07-02 18:34:00,
2013-07-02 11:43:00,70.0,64.0,29.96,SW,230,4.0,-999.0,80,0.00,,,-99.99,,2013-07-02 18:43:00,
2013-07-02 11:53:00,70.0,64.0,29.96,SW,230,4.0,-999.0,80,0.00,,,-99.99,,2013-07-02 18:53:00,
2013-07-02 12:34:00,71.0,63.0,29.98,West,280,6.0,-999.0,76,0.00,,,-99.99,,2013-07-02 19:34:00,
2013-07-02 12:43:00,71.0,63.0,29.98,West,280,6.0,-999.0,76,0.00,,,-99.99,,2013-07-02 19:43:00,
2013-07-02 12:53:00,71.0,63.0,29.98,West,280,6.0,-999.0,76,0.00,,,-99.99,,2013-07-02 19:53:00,
2013-07-02 13:33:00,72.0,64.0,29.97,WSW,240,3.0,-999.0,76,0.00,,,-99.99,,2013-07-02 20:33:00,
2013-07-02 13:43:00,72.0,64.0,29.97,WSW,240,3.0,-999.0,76,0.00,,,-99.99,,2013-07-02 20:43:00,
2013-07-02 13:52:00,72.0,64.0,29.97,WSW,240,3.0,-999.0,76,0.00,,,-99.99,,2013-07-02 20:52:00,
2013-07-02 14:33:00,72.0,64.0,29.96,SSW,210,3.0,-999.0,76,0.00,,,-99.99,,2013-07-02 21:33:00,
2013-07-02 14:43:00,72.0,64.0,29.96,SSW,210,3.0,-999.0,76,0.00,,,-99.99,,2013-07-02 21:43:00,
2013-07-02 14:52:00,72.0,64.0,29.96,SSW,210,3.0,-999.0,76,0.00,,,-99.99,,2013-07-02 21:52:00,
2013-07-02 15:34:00,69.0,62.0,29.95,SSW,200,4.0,-999.0,79,0.00,,,-99.99,,2013-07-02 22:34:00,
2013-07-02 15:43:00,69.0,62.0,29.95,SSW,200,4.0,-999.0,79,0.00,,,-99.99,,2013-07-02 22:43:00,
2013-07-02 15:53:00,69.0,62.0,29.95,SSW,200,4.0,-999.0,79,0.00,,,-99.99,,2013-07-02 22:53:00,
2013-07-02 16:33:00,69.0,63.0,29.94,West,270,5.0,-999.0,80,0.00,,,-99.99,,2013-07-02 23:33:00,
2013-07-02 16:44:00,69.0,63.0,29.94,West,270,5.0,-999.0,80,0.00,,,-99.99,,2013-07-02 23:44:00,
2013-07-02 16:52:00,69.0,63.0,29.94,West,270,5.0,-999.0,80,0.00,,,-99.99,,2013-07-02 23:52:00,
2013-07-02 17:33:00,67.0,62.0,29.94,South,190,3.0,-999.0,83,0.00,,,-99.99,,2013-07-03 00:33:00,
2013-07-02 17:44:00,67.0,62.0,29.94,South,190,3.0,-999.0,83,0.00,,,-99.99,,2013-07-03 00:44:00,
2013-07-02 17:52:00,67.0,62.0,29.94,South,190,3.0,-999.0,83,0.00,,,-99.99,,2013-07-03 00:52:00,
2013-07-02 18:33:00,67.0,62.0,29.92,West,270,3.0,-999.0,83,0.00,,,-99.99,,2013-07-03 01:33:00,
2013-07-02 18:42:00,67.0,62.0,29.92,West,270,3.0,-999.0,83,0.00,,,-99.99,,2013-07-03 01:42:00,
2013-07-02 18:53:00,67.0,62.0,29.92,West,270,3.0,-999.0,83,0.00,,,-99.99,,2013-07-03 01:53:00,
2013-07-02 19:36:00,66.0,62.0,29.90,West,280,2.0,-999.0,87,0.00,,,-99.99,,2013-07-03 02:36:00,
2013-07-02 19:43:00,66.0,62.0,29.90,West,280,2.0,-999.0,87,0.00,,,-99.99,,2013-07-03 02:43:00,
2013-07-02 20:35:00,65.0,61.0,29.90,North,0,0.0,-999.0,87,0.00,,,-99.99,,2013-07-03 03:35:00,
2013-07-02 20:45:00,65.0,61.0,29.90,North,0,0.0,-999.0,87,0.00,,,-99.99,,2013-07-03 03:45:00,
2013-07-02 21:33:00,66.0,62.0,29.89,North,0,0.0,-999.0,86,0.00,,,-99.99,,2013-07-03 04:33:00,
2013-07-02 21:43:00,66.0,62.0,29.89,North,0,0.0,-999.0,86,0.00,,,-99.99,,2013-07-03 04:43:00,
2013-07-02 21:52:00,66.0,62.0,29.89,North,0,0.0,-999.0,86,0.00,,,-99.99,,2013-07-03 04:52:00,
2013-07-02 22:35:00,68.0,62.0,29.89,North,0,0.0,-999.0,82,0.00,,,-99.99,,2013-07-03 05:35:00,
2013-07-02 22:44:00,68.0,62.0,29.89,North,0,0.0,-999.0,82,0.00,,,-99.99,,2013-07-03 05:44:00,
2013-07-02 22:54:00,68.0,62.0,29.89,North,0,0.0,-999.0,82,0.00,,,-99.99,,2013-07-03 05:54:00,
2013-07-02 23:36:00,69.0,62.0,29.89,North,0,0.0,-999.0,78,0.00,,,-99.99,,2013-07-03 06:36:00,
2013-07-02 23:54:00,69.0,62.0,29.89,North,0,0.0,-999.0,78,0.00,,,-99.99,,2013-07-03 06:54:00,